Flag for Botswana Weather past 2 weeks in Francistown, Botswana

Now
55 °F

Thunderstorms. Low clouds.


Feels Like: 52 °F
Forecast: 54 / 60 °F
Wind: 15 mph from Southeast

Location: Francistown Airport

Current Time: Sep 4, 2015 at 2:40:22 PM

Latest Report: Sep 4, 2015 at 2:00 PM


Visibility: 5 mi

Pressure: 30.33 "Hg (26.95 "Hg at 989m altitude)

Humidity: 94%

Dew point: 54 °F

Location of FrancistownLocation

Historic Weather in Francistown — Graph

°F

Francistown temperature yesterday

Maximum temperature yesterday: 72 °F (at 11:00 AM)
Minimum temperature yesterday: 54 °F (at 12:00 AM)
Average temperature yesterday: 62 °F

Past Weeks' High & Low Weather Summary

 TemperatureHumidityPressure
High93 °F (Sep 1, 1:00 PM)94% (Sep 4, 11:00 AM)30.33 "Hg (Sep 4, 11:00 AM)
Low45 °F (Aug 27, 6:00 AM)9% (Aug 22, 2:00 PM)29.95 "Hg (Sep 1, 3:00 PM)
Average71 °F40%30.15 "Hg
* Reported Aug 20 1:00 PM — Sep 4 1:00 PM, Francistown, Weather by CustomWeather, © 2015

Note: Actual official high and low records may vary slightly from our data, if they occured in-between our weather recording intervals... More about our weather records

Advertising

Francistown weather history for previous 24 hours

 ConditionsComfort  
Time TempWeatherWind HumidityBarometerVisibility
1:00 PM
Fri, Sep 4
55 °FLow clouds.14 mph94%30.30 "Hg4 mi
12:00 PM57 °FDrizzle. Low clouds.15 mph88%30.30 "Hg5 mi
11:00 AM55 °FDrizzle. Low clouds.13 mph94%30.33 "Hg5 mi
10:00 AM57 °FOvercast.17 mph88%30.33 "HgN/A
9:00 AM57 °FOvercast.16 mph88%30.33 "HgN/A
8:00 AM57 °FOvercast.21 mph88%30.33 "HgN/A
7:00 AM57 °FOvercast.18 mph88%30.30 "HgN/A
6:00 AM57 °FOvercast.23 mph82%30.27 "HgN/A
5:00 AM57 °FPassing clouds.20 mph82%30.27 "HgN/A
4:00 AM57 °FOvercast.22 mph82%30.27 "HgN/A
3:00 AM57 °FOvercast.15 mph82%30.27 "HgN/A
12:00 AM57 °FOvercast.16 mph88%30.30 "HgN/A
11:00 PM
Thu, Sep 3
57 °FClear.23 mph88%30.27 "Hg10 mi
10:00 PM57 °FOvercast.16 mph88%30.27 "HgN/A
9:00 PM59 °FOvercast.18 mph82%30.27 "HgN/A
8:00 PM59 °FOvercast.21 mph82%30.24 "HgN/A
7:00 PM59 °FOvercast.22 mph77%30.24 "HgN/A
6:00 PM61 °FOvercast.9 mph77%30.21 "HgN/A
5:00 PM61 °FOvercast.18 mph77%30.18 "HgN/A
4:00 PM63 °FOvercast.21 mph77%30.18 "HgN/A
3:00 PM63 °FOvercast.18 mph77%30.18 "HgN/A
2:00 PM64 °FOvercast.21 mph73%30.18 "HgN/A
Weather by CustomWeather, © 2015

See weather overviewHow to use our weather pages